This demonstration page uses our WeatherBlox Daily Observations layout. Learn more.

Left ArrowRight Arrow

34.16533, -84.80231

Hourly Observations for August 18, 2022

Temp ( °F °C ) Dew Point ( °F °C ) Humidity (%) Winds ( mph kmh ) Pressure ( in mb ) Visibility ( mi km ) Precip ( " mm )
12:15 am 00:15 Cloudy 73 23 70 21 89 89 Calm 29.97 1015 10 16 0.00 0.00
12:35 am 00:35 Cloudy 72 22 70 21 94 94 Calm 29.98 1015 10 16 0.00 0.00
12:55 am 00:55 Cloudy 72 22 70 21 94 94 Calm 29.97 1015 10 16 0.00 0.00
1:15 am 01:15 Mostly Cloudy 72 22 70 21 94 94 Calm 29.97 1015 9 14 0.00 0.00
1:35 am 01:35 Cloudy with Mist and Fog 72 22 70 21 94 94 Calm 29.96 1014 5 8 0.00 0.00
1:55 am 01:55 Cloudy 72 22 70 21 94 94 Calm 29.96 1014 9 14 0.00 0.00
2:15 am 02:15 Cloudy 72 22 70 21 94 94 Calm 29.96 1014 9 14 0.00 0.00
2:35 am 02:35 Cloudy 72 22 70 21 94 94 Calm 29.96 1014 9 14 0.00 0.00
2:55 am 02:55 Cloudy 72 22 70 21 94 94 Calm 29.96 1014 9 14 0.00 0.00
3:15 am 03:15 Cloudy 72 22 70 21 94 94 Calm 29.96 1014 8 13 0.00 0.00
3:35 am 03:35 Cloudy 72 22 70 21 94 94 Calm 29.96 1014 10 16 0.00 0.00
3:55 am 03:55 Cloudy 72 22 70 21 94 94 Calm 29.96 1014 9 14 0.00 0.00
4:15 am 04:15 Cloudy 72 22 70 21 94 94 Calm 29.95 1014 9 14 0.00 0.00
4:35 am 04:35 Cloudy 72 22 68 20 88 88 Calm 29.95 1014 10 16 0.00 0.00
4:55 am 04:55 Cloudy 72 22 68 20 88 88 Calm 29.95 1014 10 16 0.00 0.00
5:15 am 05:15 Cloudy 72 22 68 20 88 88 Calm 29.96 1014 10 16 0.00 0.00
5:35 am 05:35 Cloudy 72 22 68 20 88 88 Calm 29.96 1014 10 16 0.00 0.00
5:55 am 05:55 Cloudy 72 22 68 20 88 88 Calm 29.95 1014 10 16 0.00 0.00
6:15 am 06:15 Cloudy 72 22 68 20 88 88 Calm 29.95 1014 10 16 0.00 0.00
6:35 am 06:35 Cloudy 72 22 68 20 88 88 Calm 29.95 1014 10 16 0.00 0.00
6:55 am 06:55 Cloudy 72 22 68 20 88 88 Calm 29.96 1014 10 16 0.00 0.00
7:15 am 07:15 Cloudy 72 22 70 21 94 94 ESE 3 6 29.96 1014 10 16 0.00 0.00
7:35 am 07:35 Cloudy 72 22 68 20 88 88 E 5 7 29.97 1015 10 16 0.00 0.00
7:55 am 07:55 Cloudy 72 22 68 20 88 88 Calm 29.97 1015 10 16 0.00 0.00
8:15 am 08:15 Cloudy 72 22 68 20 88 88 VRB 3 6 29.97 1015 10 16 0.00 0.00
8:35 am 08:35 Cloudy 73 23 68 20 83 83 ENE 6 9 29.97 1015 10 16 0.00 0.00
8:55 am 08:55 Mostly Cloudy 75 24 70 21 83 83 Calm 29.97 1015 10 16 0.00 0.00
9:15 am 09:15 Mostly Cloudy 75 24 68 20 78 78 VRB 5 7 29.97 1015 10 16 0.00 0.00
9:35 am 09:35 Partly Cloudy 75 24 68 20 78 78 ESE 5 7 29.98 1015 10 16 0.00 0.00
9:55 am 09:55 Mostly Sunny 75 24 68 20 78 78 VRB 6 9 29.98 1015 10 16 0.00 0.00
10:15 am 10:15 Sunny 77 25 68 20 74 74 VRB 6 9 29.98 1015 10 16 0.00 0.00
10:35 am 10:35 Mostly Sunny 77 25 68 20 74 74 VRB 5 7 29.98 1015 10 16 0.00 0.00
10:55 am 10:55 Partly Cloudy 77 25 68 20 74 74 Calm 29.98 1015 10 16 0.00 0.00
11:15 am 11:15 Mostly Sunny 79 26 68 20 70 70 SE 5 7 29.98 1015 10 16 0.00 0.00
11:35 am 11:35 Sunny 81 27 68 20 66 66 ESE 7 11 29.97 1015 10 16 0.00 0.00
11:55 am 11:55 Sunny 82 28 64 18 55 55 VRB 5 7 29.97 1015 10 16 0.00 0.00
12:15 pm 12:15 Sunny 82 28 66 19 58 58 VRB 5 7 29.96 1015 10 16 0.00 0.00
12:35 pm 12:35 Sunny 82 28 66 19 58 58 ESE 6 9 29.96 1015 10 16 0.00 0.00
12:55 pm 12:55 Sunny 82 28 68 20 62 62 VRB 5 7 29.95 1014 10 16 0.00 0.00
1:15 pm 13:15 Partly Cloudy 82 28 66 19 58 58 ESE 6 9 29.96 1015 10 16 0.00 0.00
1:35 pm 13:35 Partly Cloudy 84 29 68 20 58 58 SE 7 11 29.96 1015 10 16 0.00 0.00
1:55 pm 13:55 Mostly Cloudy 82 28 66 19 58 58 VRB 3 6 29.95 1014 10 16 0.00 0.00
2:15 pm 14:15 Hazy 84 29 66 19 55 55 VRB 5 7 29.95 1014 5 8 0.00 0.00
2:35 pm 14:35 Sunny 84 29 64 18 52 52 VRB 5 7 29.94 1014 10 16 0.00 0.00
2:55 pm 14:55 Mostly Sunny 86 30 66 19 52 52 S 5 7 29.94 1014 10 16 0.00 0.00
3:15 pm 15:15 Mostly Cloudy 84 29 66 19 55 55 SSW 5 7 29.93 1014 10 16 0.00 0.00
3:35 pm 15:35 Cloudy 86 30 66 19 52 52 VRB 6 9 29.92 1013 10 16 0.00 0.00
3:55 pm 15:55 Mostly Cloudy 84 29 66 19 55 55 E 5 7 29.92 1013 10 16 0.00 0.00
4:15 pm 16:15 Mostly Cloudy 84 29 66 19 55 55 VRB 5 7 29.92 1013 10 16 0.00 0.00
4:35 pm 16:35 Mostly Cloudy 84 29 66 19 55 55 SSE 6 9 29.92 1013 10 16 0.00 0.00
4:55 pm 16:55 Mostly Cloudy 84 29 66 19 55 55 SSE 5 7 29.92 1013 10 16 0.00 0.00
5:15 pm 17:15 Mostly Cloudy 82 28 68 20 62 62 Calm 29.92 1013 10 16 0.00 0.00
5:35 pm 17:35 Cloudy 81 27 70 21 70 70 NNE 5 7 29.91 1013 10 16 0.00 0.00
5:55 pm 17:55 Cloudy with Heavy Rain 73 23 70 21 89 89 W 15 24 29.93 1014 1 1 0.15 3.81
6:15 pm 18:15 Mostly Cloudy with Light Rain 72 22 68 20 88 88 WSW 6 9 29.94 1014 4 6 0.00 0.00
6:35 pm 18:35 Cloudy with Light Rain 72 22 68 20 88 88 Calm 29.93 1013 8 13 0.00 0.00
6:55 pm 18:55 Cloudy 72 22 70 21 94 94 Calm 29.93 1013 9 14 0.12 3.05
7:15 pm 19:15 Cloudy 73 23 70 21 89 89 Calm 29.92 1013 10 16 0.00 0.00
7:35 pm 19:35 Mostly Cloudy 75 24 72 22 89 89 Calm 29.92 1013 10 16 0.00 0.00
7:55 pm 19:55 Mostly Cloudy 73 23 72 22 94 94 Calm 29.93 1014 10 16 0.00 0.00
8:15 pm 20:15 Mostly Sunny 73 23 72 22 94 94 Calm 29.93 1014 9 14 0.00 0.00
8:35 pm 20:35 Partly Cloudy 73 23 72 22 94 94 Calm 29.95 1014 8 13 0.00 0.00
8:55 pm 20:55 Cloudy 73 23 72 22 94 94 Calm 29.95 1014 8 13 0.00 0.00
9:15 pm 21:15 Cloudy 73 23 72 22 94 94 Calm 29.95 1014 9 14 0.00 0.00
9:35 pm 21:35 Mostly Cloudy 73 23 72 22 94 94 Calm 29.95 1014 9 14 0.00 0.00
9:55 pm 21:55 Mostly Cloudy 73 23 72 22 94 94 Calm 29.97 1015 9 14 0.00 0.00
10:15 pm 22:15 Cloudy 73 23 72 22 94 94 Calm 29.97 1015 8 13 0.00 0.00
10:35 pm 22:35 Mostly Cloudy 72 22 72 22 100 100 Calm 29.97 1015 7 11 0.00 0.00
10:55 pm 22:55 Cloudy 73 23 72 22 94 94 Calm 29.97 1015 9 14 0.00 0.00
11:15 pm 23:15 Cloudy 73 23 72 22 94 94 Calm 29.97 1015 7 11 0.00 0.00
11:35 pm 23:35 Cloudy 72 22 72 22 100 100 Calm 29.98 1015 7 11 0.00 0.00
11:55 pm 23:55 Cloudy 72 22 72 22 100 100 Calm 29.98 1015 8 13 0.00 0.00

Powered by AerisWeather